Petersburg, WV

10:07 PM EST on December 07, 2019 (GMT -0500)
Petersburg

Weather History for KW99 - September, 2019

Change the Weather History Date:

Monday, September 30, 2019

  Actual Average (WUND) Record (WUND)
Temperature  
Mean Temperature 70 °F -  
Max Temperature 78 °F - - (-1)
Min Temperature 63 °F - - (-1)
Cooling Degree Days 6    
Growing Degree Days 20 (Base 50)    
Moisture  
Dew Point 65 °F    
Average Humidity 90    
Maximum Humidity 100    
Minimum Humidity 73    
Precipitation  
Precipitation 0.48 in - - ()
Sea Level Pressure  
Sea Level Pressure 30.21 in    
Wind  
Wind Speed 1 mph (NW)    
Max Wind Speed 5 mph    
Max Gust Speed -    
Visibility 9 miles    
Events Rain    
Averages and records for this station are not official NWS values.
T = Trace of Precipitation, MM = Missing Value Source: NWS Daily Summary

Daily Weather History Graph

Daily Weather History Graph

Search for Another Location

Airport or City:

Astronomy

Sep. 30, 2019 Rise Set
Actual Time 7:11 AM EDT 7:01 PM EDT
Civil Twilight 6:44 AM EDT 7:27 PM EDT
Nautical Twilight 6:13 AM EDT 7:58 PM EDT
Astronomical Twilight 5:42 AM EDT 8:29 PM EDT
Moon 9:12 AM EDT (9/30) 8:36 PM EDT (9/30)
Length of Visible Light 12h 42m
Length of Day
11h 49m
Waxing Crescent, 5% of the Moon is Illuminated
Sep 30
Waxing Crescent
Oct 5
First Quarter
Oct 13
Full
Oct 21
Last Quarter
Oct 27
New

Hourly Weather History & Observations

Time (EDT) Temp. Dew Point Humidity Pressure Visibility Wind Dir Wind Speed Gust Speed Precip Events Conditions
12:15 AM 69.6 °F 64.0 °F 82% 30.25 in 10.0 mi West 3.5 mph - N/A   Mostly Cloudy
12:35 AM 68.9 °F 64.2 °F 85% 30.25 in 10.0 mi Calm Calm - N/A   Overcast
12:55 AM 69.8 °F 62.4 °F 77% 30.25 in 10.0 mi Calm Calm - N/A   Overcast
1:15 AM 68.2 °F 62.8 °F 83% 30.25 in 10.0 mi NW 3.5 mph - N/A   Overcast
1:30 AM 68.7 °F 62.2 °F 80% 30.25 in 10.0 mi WNW 3.5 mph - N/A   Overcast
1:55 AM 66.2 °F 62.4 °F 88% 30.25 in 10.0 mi WNW 4.6 mph - N/A   Scattered Clouds
2:10 AM 65.7 °F 62.1 °F 88% 30.25 in 10.0 mi WNW 3.5 mph - N/A   Clear
2:55 AM 65.3 °F 62.1 °F 89% 30.24 in 10.0 mi WNW 3.5 mph - N/A   Scattered Clouds
3:15 AM 64.9 °F 62.2 °F 91% 30.23 in 10.0 mi Calm Calm - N/A   Scattered Clouds
3:35 AM 64.4 °F 61.7 °F 91% 30.23 in 10.0 mi Calm Calm - N/A   Mostly Cloudy
3:55 AM 64.9 °F 62.4 °F 92% 30.23 in 10.0 mi Calm Calm - N/A   Scattered Clouds
4:15 AM 64.6 °F 62.6 °F 93% 30.22 in 10.0 mi Calm Calm - N/A   Scattered Clouds
4:35 AM 64.6 °F 62.6 °F 93% 30.22 in 10.0 mi Calm Calm - N/A   Mostly Cloudy
4:55 AM 65.1 °F 62.4 °F 91% 30.22 in 10.0 mi Calm Calm - N/A   Overcast
5:15 AM 64.8 °F 62.8 °F 93% 30.22 in 10.0 mi Calm Calm - N/A   Overcast
5:35 AM 64.9 °F 62.4 °F 92% 30.22 in 10.0 mi Calm Calm - N/A   Overcast
5:55 AM 65.5 °F 62.6 °F 90% 30.23 in 10.0 mi Calm Calm - N/A   Overcast
6:15 AM 64.9 °F 62.4 °F 92% 30.23 in 5.0 mi Calm Calm - 0.04 in Rain Heavy Rain
6:30 AM 64.0 °F 62.8 °F 96% 30.23 in 3.0 mi Calm Calm - 0.08 in Rain Rain
6:55 AM 63.9 °F 63.5 °F 99% 30.23 in 10.0 mi Calm Calm - 0.09 in Rain Light Rain
7:15 AM 63.9 °F 63.9 °F 100% 30.24 in 7.0 mi Calm Calm - N/A   Mostly Cloudy
7:35 AM 63.7 °F 63.7 °F 100% 30.25 in 7.0 mi Calm Calm - N/A   Overcast
7:55 AM 64.0 °F 63.5 °F 98% 30.25 in 10.0 mi Calm Calm - 0.01 in   Overcast
8:15 AM 64.4 °F 63.9 °F 98% 30.25 in 10.0 mi Calm Calm - N/A   Overcast
8:35 AM 64.6 °F 63.9 °F 98% 30.25 in 10.0 mi Calm Calm - N/A   Overcast
8:55 AM 64.9 °F 64.0 °F 97% 30.25 in 7.0 mi Calm Calm - N/A Rain Rain
9:15 AM 64.9 °F 64.4 °F 98% 30.25 in 7.0 mi Calm Calm - N/A   Mostly Cloudy
9:35 AM 66.2 °F 64.6 °F 94% 30.25 in 10.0 mi Calm Calm - N/A   Mostly Cloudy
9:55 AM 66.2 °F 63.9 °F 92% 30.26 in 10.0 mi Calm Calm - N/A Rain Light Rain
10:15 AM 66.2 °F 64.0 °F 93% 30.27 in 10.0 mi North 3.5 mph - N/A   Overcast
10:35 AM 65.3 °F 63.5 °F 94% 30.29 in 7.0 mi NNW 4.6 mph - 0.01 in Rain Light Rain
10:55 AM 63.7 °F 62.8 °F 97% 30.28 in 1.2 mi Calm Calm - 0.23 in Rain Heavy Rain
11:15 AM 63.7 °F 62.8 °F 97% 30.29 in 10.0 mi North 4.6 mph - 0.01 in Rain Light Rain
11:35 AM 63.7 °F 63.3 °F 99% 30.29 in 3.0 mi Calm Calm - 0.10 in Rain Rain
11:55 AM 63.9 °F 63.1 °F 97% 30.27 in 4.0 mi Calm Calm - 0.14 in Rain Rain
12:15 PM 64.9 °F 64.2 °F 98% 30.25 in 10.0 mi South 3.5 mph - 0.01 in Rain Light Rain
12:35 PM 66.4 °F 65.3 °F 96% 30.24 in 10.0 mi Calm Calm - 0.01 in   Light Drizzle
12:55 PM 68.2 °F 64.8 °F 89% 30.24 in 10.0 mi Calm Calm - 0.01 in   Mostly Cloudy
1:15 PM 69.3 °F 65.1 °F 87% 30.23 in 10.0 mi Calm Calm - N/A   Scattered Clouds
1:35 PM 69.6 °F 65.7 °F 87% 30.22 in 10.0 mi Calm Calm - N/A   Mostly Cloudy
1:55 PM 69.3 °F 65.5 °F 88% 30.21 in 10.0 mi Calm Calm - N/A   Overcast
2:15 PM 69.8 °F 65.3 °F 86% 30.20 in 10.0 mi Calm Calm - N/A   Mostly Cloudy
2:35 PM 70.9 °F 65.7 °F 83% 30.19 in 10.0 mi Calm Calm - N/A   Scattered Clouds
2:55 PM 71.8 °F 66.6 °F 84% 30.19 in 10.0 mi Calm Calm - N/A   Clear
3:15 PM 72.9 °F 66.7 °F 81% 30.17 in 10.0 mi Calm Calm - N/A   Clear
3:35 PM 74.3 °F 67.1 °F 78% 30.17 in 10.0 mi Calm Calm - N/A   Scattered Clouds
3:55 PM 75.6 °F 68.0 °F 77% 30.16 in 10.0 mi Calm Calm - N/A   Scattered Clouds
4:15 PM 75.9 °F 68.0 °F 76% 30.15 in 10.0 mi Calm Calm - N/A   Scattered Clouds
4:35 PM 76.3 °F 68.5 °F 77% 30.14 in 10.0 mi Calm Calm - N/A   Clear
4:55 PM 77.4 °F 69.1 °F 76% 30.14 in 10.0 mi Calm Calm - N/A   Clear
5:15 PM 77.9 °F 69.1 °F 74% 30.14 in 10.0 mi Calm Calm - N/A   Clear
5:35 PM 76.8 °F 69.1 °F 77% 30.14 in 10.0 mi Calm Calm - N/A   Clear
5:55 PM 78.1 °F 68.9 °F 73% 30.14 in 10.0 mi Calm Calm - N/A   Scattered Clouds
6:15 PM 78.3 °F 69.1 °F 73% 30.13 in 10.0 mi Calm Calm - N/A   Clear
6:35 PM 76.8 °F 69.1 °F 77% 30.13 in 10.0 mi Calm Calm - N/A   Clear
6:55 PM 75.6 °F 69.1 °F 80% 30.14 in 10.0 mi Calm Calm - N/A   Clear
7:15 PM 73.9 °F 69.1 °F 85% 30.14 in 10.0 mi Calm Calm - N/A   Clear
7:35 PM 70.7 °F 70.0 °F 98% 30.14 in 10.0 mi Calm Calm - N/A   Clear
7:55 PM 70.2 °F 69.6 °F 98% 30.15 in 10.0 mi West 3.5 mph - N/A   Clear
8:15 PM 70.7 °F 68.9 °F 94% 30.16 in 10.0 mi Calm Calm - N/A   Clear
8:35 PM 70.3 °F 68.2 °F 93% 30.16 in 10.0 mi Calm Calm - N/A   Scattered Clouds
8:55 PM 69.6 °F 68.0 °F 95% 30.16 in 10.0 mi Calm Calm - N/A   Mostly Cloudy
9:15 PM 69.3 °F 67.6 °F 95% 30.17 in 10.0 mi North 3.5 mph - N/A   Overcast
9:35 PM 68.9 °F 67.5 °F 95% 30.17 in 10.0 mi North 4.6 mph - N/A   Overcast
9:55 PM 68.5 °F 67.5 °F 96% 30.17 in 10.0 mi Calm Calm - N/A   Overcast
10:15 PM 68.5 °F 67.5 °F 96% 30.17 in 10.0 mi Calm Calm - N/A   Overcast
10:35 PM 68.9 °F 67.6 °F 96% 30.17 in 10.0 mi Calm Calm - N/A   Overcast
10:55 PM 68.7 °F 67.5 °F 96% 30.17 in 10.0 mi Calm Calm - N/A   Overcast
11:35 PM 68.9 °F 67.6 °F 96% 30.17 in 10.0 mi Calm Calm - N/A   Overcast
11:55 PM 68.7 °F 68.0 °F 98% 30.17 in 7.0 mi Calm Calm - N/A   Overcast